Showing default

OPS 6638 (VELA 7), 2765

Orbit data source: Space-Track

OPS 6638 (VELA 7), 2765 is a payload satellite owned by USAF SSD (US) in HEO that was launched on Fri, 28 Apr 1967 UTC via a TITAN IIIC launch vehicle from the Air Force Eastern Test Range (AFETR). Payload-class satellites include a variety of spacecraft equipped with specific instruments for various scientific and technological missions. These include communications satellites like Starlink; space stations such as the ISS; scientific satellites like the Hubble; Earth observation satellites from companies like Planet Labs, Umbra, and HawkEye 360; GPS; miniature CubeSats for education and research; and military/defense satellites.

Loading next visibility...
Identifier
2765, 1967-040A
Orbit
HEO
Country
Flag of USUS
Related business
Manufacturer
TRW
Mission
Spacecraft
Bus & Motor
VELA, BE-3
Mass
331 kg wet, 221 kg dry
Launch date (UTC)
1967-04-28 (59 years ago)
Launch vehicle
TITAN IIIC
Launch site
Air Force Eastern Test Range (AFETR)
Object type
Payload
Rocket body
Debris
Shape & HBR
Unknown
Radar Cross Section
RCS unknown

Expand to show TLE details & history
Last TLE update: 1 month ago

TLE from 1 month ago
0 OPS 6638 (VELA 7)
1 02765U 67040A   26102.69259813 -.00000511  00000-0  00000-0 0  9999
2 02765  40.7970   6.5171 5048067 292.5333   0.3581  0.21563768 13342
Epoch: 2026-04-12T16:37Z
TLE epoch observation values (Epoch: 2026-04-12T16:37:20.478Z)
Latitude
-37.29611°
Longitude
-145.31666°
Altitude
52,802.119 km
Speed
3.175 km/s
True Right ascension
20h 19m 39s
True Declination
-37° 16' 34"
Sunlit
Object was in daylight at epoch
Visualization orbit readout
Latitude
Unknown
Longitude
Unknown
Altitude
Unknown
Speed
Unknown
Apparent Right ascension
Unknown
Apparent Declination
Unknown
Sunlit
N/A
Visualization observer readout
Local Sidereal Time
07:08:19
Azimuth
Unknown
Elevation
Unknown
Doppler factor
Unknown
Orbital elements
Apogee altitude
170,388.581 km
Perigee altitude
51,791.257 km
Semi-major axis
117,468.056 km
Eccentricity
0.50481
Inclination
40.797°
RAAN
6.5171°
Arg. of periapsis
292.5333°
True anomaly
1.26055°
Mean anomaly
0.3581°
Eccentric anomaly
0.72313°
Mean motion
0.05391 °/min
Orbital period
6,677.89 mins
BSTAR
0
Loading maneuver chart data...
Computing Atmospheric mass density...
Loading historical data...
Loading historical data...
Loading historical data...
Loading historical data...
Loading historical data...
Loading historical data...
Loading historical data...

Documentation

Showing up to 5 results
|